Overview Statistics Trail Chart Weather Telemetry Raw packets
 

This is the latest recevied weather packets stored in our database for station/object GBTWP-2. If no packets are shown the sender has not sent any weather packets the latest 10 day(s).

<< 20 21 22 23 24 25 26 >>
Time Temp. Humidity Pressure Rain* Wind** Luminosity Snow
1788539821 22.22° C 98% 1017.6 hPa 0 mm - 229 W/m² -
1788539520 22.22° C 98% 1017.9 hPa 0 mm - 224 W/m² -
1788539220 22.22° C 98% 1018 hPa 0 mm - 222 W/m² -
1788538921 21.67° C 98% 1018 hPa 0 mm - 221 W/m² -
1788538619 21.67° C 99% 1018.1 hPa 0 mm - 204 W/m² -
1788538319 21.67° C 99% 1018.1 hPa 0 mm - 213 W/m² -
1788538018 21.67° C 99% 1018.3 hPa 0 mm - 209 W/m² -
1788537718 21.67° C 99% 1018.1 hPa 0 mm - 231 W/m² -
1788537421 21.11° C 99% 1018.7 hPa 0 mm - 213 W/m² -
1788537117 21.11° C 99% 1018.7 hPa 0 mm - 170 W/m² -
1788536819 21.11° C 99% 1018.7 hPa 0 mm - 173 W/m² -
1788536519 21.11° C 99% 1019 hPa 0 mm - 134 W/m² -
1788536218 20.56° C 99% 1019.2 hPa 0 mm - 139 W/m² -
1788535919 20.56° C 99% 1019.2 hPa 0 mm - 113 W/m² -
1788535620 20.56° C 99% 1019.1 hPa 0 mm - 85 W/m² -
1788535317 20.56° C 99% 1019 hPa 0 mm - 75 W/m² -
1788535019 20.56° C 99% 1019.2 hPa 0 mm - 65 W/m² -
1788534720 20.56° C 99% 1019.3 hPa 0 mm - 66 W/m² -
1788534418 20.56° C 99% 1019.3 hPa 0 mm - 68 W/m² -
1788534119 20.56° C 99% 1019.5 hPa 0 mm - 71 W/m² -
1788533820 20.56° C 99% 1019.4 hPa 0 mm - 87 W/m² -
1788533519 20° C 99% 1019.4 hPa 0 mm - 103 W/m² -
1788533217 20° C 99% 1019.4 hPa 0 mm - 88 W/m² -
1788532917 20° C 99% 1018.9 hPa 0 mm - 79 W/m² -
1788532619 20° C 99% 1019.2 hPa 0 mm - 73 W/m² -

* Rain latest hour (hover to see other rain measurements)
** Current wind speed in m/s (hover to see current wind gust speed)